Lihue, HI

7:35 PM HST on February 27, 2017 (GMT -1000)
Lihue

Weather History for PHLI - April, 2013

Change the Weather History Date:

Sunday, April 28, 2013

  Actual Average Record
Temperature  
Mean Temperature 75 °F 75 °F  
Max Temperature 80 °F 80 °F 84 °F (1956)
Min Temperature 69 °F 69 °F 61 °F (2004)
Degree Days  
Heating Degree Days 0 0  
Month to date heating degree days 0 0  
Since 1 July heating degree days 0 0  
Cooling Degree Days 10 9  
Month to date cooling degree days 199 251  
Year to date cooling degree days 739 885  
Growing Degree Days 26 (Base 50)    
Moisture  
Dew Point 69 °F    
Average Humidity 80    
Maximum Humidity 90    
Minimum Humidity 69    
Precipitation  
Precipitation 0.01 in 0.06 in 1.45 in (1954)
Month to date precipitation 2.84 2.12  
Year to date precipitation 14.01 13.64  
Snow  
Snow 0.00 in - - ()
Month to date snowfall 0.0  
Since 1 July snowfall 0.0  
Snow Depth 0.00 in    
Sea Level Pressure  
Sea Level Pressure 29.98 in    
Wind  
Wind Speed 11 mph (South)    
Max Wind Speed 18 mph    
Max Gust Speed 24 mph    
Visibility 10 miles    
Events Rain    
T = Trace of Precipitation, MM = Missing Value Source: NWS Daily Summary

Daily Weather History Graph

Daily Weather History Graph

Search for Another Location

Airport or City:

Trip Planner

Search our weather history database for the weather conditions in past years. The results will help you decide how hot, cold, wet, or windy it might be!

Date:

Astronomy

Apr. 28, 2013 Rise Set
Actual Time 6:07 AM HST 7:02 PM HST
Civil Twilight 5:44 AM HST 7:25 PM HST
Nautical Twilight 5:16 AM HST 7:53 PM HST
Astronomical Twilight 4:48 AM HST 8:21 PM HST
Moon 10:31 PM HST 8:48 AM HST
Length of Visible Light 13h 41m
Length of Day
12h 55m
Waning Gibbous, 87% of the Moon is Illuminated
Apr 28
Waning Gibbous
May 2
Last Quarter
May 9
New
May 17
First Quarter
May 24
Full

Hourly Weather History & Observations

Time (HST) Temp. Heat Index Dew Point Humidity Pressure Visibility Wind Dir Wind Speed Gust Speed Precip Events Conditions
12:53 AM 71.1 °F - 66.9 °F 87% 30.02 in 10.0 mi WSW 4.6 mph - N/A   Mostly Cloudy
1:53 AM 70.0 °F - 66.9 °F 90% 30.00 in 10.0 mi West 3.5 mph - N/A   Partly Cloudy
2:53 AM 73.9 °F - 69.1 °F 85% 29.99 in 10.0 mi South 10.4 mph - N/A   Mostly Cloudy
3:53 AM 73.9 °F - 68.0 °F 82% 29.98 in 10.0 mi South 10.4 mph - N/A   Mostly Cloudy
4:53 AM 73.9 °F - 68.0 °F 82% 29.98 in 10.0 mi South 11.5 mph - N/A   Overcast
5:53 AM 73.0 °F - 68.0 °F 84% 29.99 in 10.0 mi South 8.1 mph - 0.00 in   Mostly Cloudy
6:12 AM 73.4 °F - 69.8 °F 88% 29.99 in 10.0 mi South 8.1 mph - N/A   Mostly Cloudy
6:26 AM 73.4 °F - 69.8 °F 88% 30.00 in 10.0 mi South 11.5 mph - N/A   Overcast
6:53 AM 73.9 °F - 69.1 °F 85% 29.99 in 10.0 mi South 10.4 mph - N/A   Mostly Cloudy
7:53 AM 75.9 °F - 68.0 °F 76% 30.01 in 10.0 mi South 12.7 mph - N/A   Mostly Cloudy
8:53 AM 77.0 °F - 69.1 °F 76% 30.00 in 10.0 mi South 16.1 mph 21.9 mph N/A   Partly Cloudy
9:53 AM 79.0 °F - 70.0 °F 74% 30.00 in 10.0 mi South 13.8 mph 20.7 mph N/A   Clear
10:53 AM 80.1 °F 83.2 °F 70.0 °F 71% 30.00 in 10.0 mi South 18.4 mph - N/A   Partly Cloudy
11:53 AM 78.1 °F - 71.1 °F 79% 30.00 in 10.0 mi South 16.1 mph 23.0 mph 0.00 in   Mostly Cloudy
12:11 PM 78.8 °F - 69.8 °F 74% 30.00 in 10.0 mi South 16.1 mph 24.2 mph N/A   Scattered Clouds
12:53 PM 75.0 °F - 71.1 °F 87% 29.99 in 10.0 mi South 12.7 mph 19.6 mph 0.01 in Rain Light Rain
1:53 PM 78.1 °F - 70.0 °F 76% 29.97 in 10.0 mi South 13.8 mph - 0.00 in   Partly Cloudy
2:53 PM 80.1 °F 83.8 °F 72.0 °F 76% 29.95 in 10.0 mi SSW 11.5 mph - N/A   Partly Cloudy
3:53 PM 79.0 °F - 70.0 °F 74% 29.93 in 10.0 mi South 12.7 mph - N/A   Partly Cloudy
4:53 PM 77.0 °F - 69.1 °F 76% 29.93 in 10.0 mi South 11.5 mph - N/A   Mostly Cloudy
5:15 PM 77.0 °F - 69.8 °F 78% 29.94 in 10.0 mi South 11.5 mph 19.6 mph N/A   Scattered Clouds
5:53 PM 77.0 °F - 69.1 °F 76% 29.94 in 10.0 mi South 11.5 mph - N/A   Mostly Cloudy
6:53 PM 75.0 °F - 70.0 °F 84% 29.95 in 10.0 mi South 11.5 mph - 0.03 in   Partly Cloudy
7:53 PM 73.9 °F - 69.1 °F 85% 29.96 in 10.0 mi South 6.9 mph - N/A   Scattered Clouds
8:37 PM 73.4 °F - 69.8 °F 88% 29.98 in 8.0 mi SSW 4.6 mph - 0.01 in Rain Light Rain
8:53 PM 73.9 °F - 70.0 °F 87% 29.98 in 10.0 mi South 11.5 mph - 0.01 in   Scattered Clouds
9:53 PM 73.9 °F - 70.0 °F 87% 29.99 in 10.0 mi South 10.4 mph - N/A   Mostly Cloudy
10:53 PM 73.9 °F - 70.0 °F 87% 29.99 in 10.0 mi SSW 9.2 mph - N/A   Mostly Cloudy
11:53 PM 73.9 °F - 70.0 °F 87% 29.98 in 10.0 mi South 8.1 mph - N/A   Scattered Clouds